This demonstration page uses our WeatherBlox Daily Observations layout. Learn more.

Left ArrowRight Arrow

Hourly Observations for February 20, 2019

Temp ( °F °C ) Dew Point ( °F °C ) Humidity (%) Winds ( mph kmh ) Pressure ( in mb ) Visibility ( mi km ) Precip ( " mm )
12:18 am 00:18 Cloudy with Light Snow 24 -4.4 20 -6.7 84 84 ESE 9 15 29.97 1015 1 2 0.03 0.76
12:28 am 00:28 Cloudy with Light Snow 24 -4.4 20 -6.7 84 84 SE 13 20 29.98 1015 2 2 0.05 1.27
12:52 am 00:52 Cloudy with Light Snow 25 -3.9 21 -6.1 85 85 SSE 12 19 29.94 1014 1 2 0.05 1.27
1:09 am 01:09 Cloudy with Light Snow 25 -3.9 21 -6.1 85 85 S 12 19 29.99 1016 1 1 0.02 0.51
1:23 am 01:23 Mostly Cloudy with Snow 25 -3.9 22 -5.6 88 88 S 12 19 29.98 1015 1 1 0.03 0.76
1:43 am 01:43 Mostly Cloudy with Snow 25 -3.9 22 -5.6 88 88 SSW 6 9 29.98 1015 1 1 0.05 1.27
1:52 am 01:52 Mostly Cloudy with Light Snow 25 -3.9 22 -5.6 88 88 S 6 9 29.95 1014 1 1 0.06 1.52
2:03 am 02:03 Mostly Cloudy with Snow 24 -4.4 22 -5.6 91 91 Calm 29.96 1015 1 1 0.01 0.25
2:19 am 02:19 Cloudy with Light Snow 25 -3.9 22 -5.6 88 88 Calm 29.96 1015 2 2 0.02 0.51
2:35 am 02:35 Cloudy with Light Snow 25 -3.9 22 -5.6 88 88 Calm 29.95 1014 2 2 0.02 0.51
2:48 am 02:48 Cloudy with Light Freezing Drizzle 25 -4 21 -6 86 86 Calm 29.92 1013 2 2 0.03 0.76
2:52 am 02:52 Cloudy with Light Freezing Drizzle 25 -3.9 22 -5.6 88 88 Calm 29.89 1012 2 2 0.03 0.76
3:15 am 03:15 Cloudy with Light Freezing Drizzle 25 -3.9 22 -5.6 88 88 Calm 29.93 1014 2 2 0.00 0.03
3:32 am 03:32 Cloudy with Light Freezing Drizzle 25 -3.9 23 -5 92 92 NNE 3 6 29.91 1013 1 2 0.00 0.03
3:52 am 03:52 Cloudy with Light Freezing Rain 25 -3.9 23 -5 92 92 N 3 6 29.86 1011 1 2 0.01 0.25
4:13 am 04:13 Cloudy with Light Freezing Rain 25 -3.9 22 -5.6 88 88 N 5 7 29.88 1012 1 2 0.00 0.03
4:30 am 04:30 Cloudy with Light Freezing Drizzle 25 -3.9 23 -5 92 92 NE 5 7 29.87 1011 1 2 0.00 0.03
4:52 am 04:52 Cloudy with Light Freezing Drizzle 25 -3.9 23 -5 92 92 N 5 7 29.82 1010 1 2 0.01 0.25
5:25 am 05:25 Cloudy with Light Snow 25 -3.9 23 -5 92 92 Calm 29.84 1010 1 2 0.00 0.03
5:52 am 05:52 Cloudy with Light Snow 26 -3.3 23 -5 88 88 Calm 29.79 1009 1 2 0.01 0.25
6:52 am 06:52 Cloudy with Light Snow 25 -3.9 23 -5 92 92 Calm 29.76 1008 1 2 0.01 0.25
7:48 am 07:48 Cloudy with Light Snow 25 -4 23 -5 93 93 SE 5 7 29.77 1008 1 1 0.00 0.03
7:52 am 07:52 Cloudy with Light Snow 25 -3.9 23 -5 92 92 SE 5 7 29.74 1007 1 1 0.00 0.03
8:04 am 08:04 Cloudy with Light Snow 25 -3.9 23 -5 92 92 SSE 5 7 29.77 1008 1 2 0.01 0.25
8:48 am 08:48 Cloudy with Light Snow 27 -3 23 -5 86 86 S 6 9 29.77 1008 3 4 0.01 0.25
8:52 am 08:52 Cloudy with Light Snow 27 -2.8 23 -5 85 85 S 6 9 29.74 1007 3 4 0.01 0.25
9:05 am 09:05 Cloudy with Light Snow 27 -2.8 23 -5 85 85 S 7 11 29.77 1008 3 5 0.00 0.03
9:52 am 09:52 Cloudy 28 -2.2 24 -4.4 85 85 SSW 9 15 29.73 1007 7 11 0.00 0.03
10:41 am 10:41 Cloudy with Light Snow 29 -1.7 23 -5 78 78 WSW 14 22 29.75 1007 3 5 0.00 0.03
10:52 am 10:52 Cloudy with Light Snow 29 -1.7 23 -5 78 78 WSW 14 22 29.72 1006 3 4 0.00 0.03
10:59 am 10:59 Cloudy with Light Snow 29 -1.7 22 -5.6 75 75 WSW 14 22 29.75 1007 4 6 0.00 0.03
11:52 am 11:52 Cloudy 29 -1.7 20 -6.7 69 69 W 12 19 29.73 1007 9 14 0.00 0.03
12:52 pm 12:52 Cloudy 29 -1.7 19 -7.2 66 66 WSW 9 15 29.73 1007 10 16 0.00 0.00
1:21 pm 13:21 Partly Cloudy 29 -1.7 18 -7.8 63 63 W 15 24 29.75 1007 10 16 0.00 0.00
1:52 pm 13:52 Partly Cloudy 30 -1.1 17 -8.3 58 58 WSW 13 20 29.72 1007 10 16 0.00 0.00
2:52 pm 14:52 Mostly Sunny 30 -1.1 17 -8.3 58 58 WSW 14 22 29.73 1007 10 16 0.00 0.00
3:52 pm 15:52 Mostly Sunny 30 -1.1 16 -8.9 56 56 SW 14 22 29.76 1008 10 16 0.00 0.00
4:52 pm 16:52 Sunny 30 -1.1 17 -8.3 58 58 SW 10 17 29.79 1009 9 14 0.00 0.00
5:52 pm 17:52 Sunny 29 -1.7 18 -7.8 63 63 SW 12 19 29.82 1010 10 16 0.00 0.00
6:52 pm 18:52 Clear 28 -2.2 18 -7.8 66 66 VRB 7 11 29.85 1011 10 16 0.00 0.00
7:52 pm 19:52 Clear 26 -3.3 17 -8.3 69 69 W 8 13 29.89 1012 10 16 0.00 0.00
8:52 pm 20:52 Clear 25 -3.9 15 -9.4 66 66 WSW 6 9 29.92 1013 10 16 0.00 0.00
9:52 pm 21:52 Clear 24 -4.4 14 -10 65 65 W 8 13 29.96 1015 10 16 0.00 0.00
10:52 pm 22:52 Clear 22 -5.6 13 -10.6 68 68 W 7 11 29.99 1016 10 16 0.00 0.00
11:52 pm 23:52 Clear 18 -7.8 11 -11.7 74 74 W 5 7 30.01 1016 9 14 0.00 0.00

Powered by AerisWeather